Change the Weather History Date:

Friday, December 7, 2012

  Actual Average (KPOE) Record (KPOE)
Temperature  
Mean Temperature 62 °F -  
Max Temperature 73 °F 60 °F 80 °F (1998)
Min Temperature 50 °F 42 °F 28 °F (2003)
Degree Days  
Heating Degree Days 4    
Growing Degree Days 12 (Base 50)    
Moisture  
Dew Point 56 °F    
Average Humidity 89    
Maximum Humidity 100    
Minimum Humidity 57    
Precipitation  
Precipitation 0.01 in - - ()
Sea Level Pressure  
Sea Level Pressure 29.90 in    
Wind  
Wind Speed 1 mph (SSE)    
Max Wind Speed 7 mph    
Max Gust Speed -    
Visibility 6 miles    
Events Fog    
Averages and records for this station are not official NWS values.
T = Trace of Precipitation, MM = Missing Value Source: NWS Daily Summary

Daily Weather History Graph

Daily Weather History Graph

Search for Another Location

Airport or City:

Trip Planner

Search our weather history database for the weather conditions in past years. The results will help you decide how hot, cold, wet, or windy it might be!

Date:

Astronomy

Dec. 07, 2012 Rise Set
Actual Time 6:59 AM CST 5:10 PM CST
Civil Twilight 6:32 AM CST 5:36 PM CST
Nautical Twilight 6:02 AM CST 6:06 PM CST
Astronomical Twilight 5:33 AM CST 6:36 PM CST
Moon 12:40 AM CST (12/7) 12:48 PM CST (12/7)
Length of Visible Light 11h 03m
Length of Day
10h 10m
Last Quarter, 38% of the Moon is Illuminated
Dec 7
Last Quarter
Dec 13
New
Dec 19
First Quarter
Dec 28
Full
Jan 4
Last Quarter

Hourly Weather History & Observations

Time (CST) Temp. Dew Point Humidity Pressure Visibility Wind Dir Wind Speed Gust Speed Precip Events Conditions
12:04 AM 51.8 °F 51.8 °F 100% 29.93 in 0.8 mi Calm Calm - N/A   Mist
12:56 AM 51.1 °F 51.1 °F 100% 29.92 in 0.5 mi Calm Calm - N/A Fog Fog
1:56 AM 51.1 °F 51.1 °F 100% 29.91 in 0.5 mi Calm Calm - N/A Fog Fog
2:56 AM 51.1 °F 50.0 °F 96% 29.90 in 0.8 mi Calm Calm - N/A   Mist
3:56 AM 51.1 °F 51.1 °F 100% 29.91 in 0.8 mi Calm Calm - N/A   Mist
4:56 AM 50.0 °F 48.9 °F 96% 29.91 in 0.8 mi Calm Calm - N/A   Mist
5:56 AM 50.0 °F 48.9 °F 96% 29.91 in 0.5 mi Calm Calm - N/A Fog Fog
6:56 AM 50.0 °F 48.9 °F 96% 29.92 in 0.5 mi Calm Calm - N/A Fog Fog
7:56 AM 51.1 °F 50.0 °F 96% 29.94 in 0.2 mi Calm Calm - N/A Fog Fog
8:22 AM 51.8 °F 51.8 °F 100% 29.94 in 2.0 mi Calm Calm - N/A   Overcast
8:33 AM 53.6 °F 51.8 °F 94% 29.94 in 4.0 mi Calm Calm - N/A   Overcast
8:56 AM 54.0 °F 53.1 °F 97% 29.94 in 7.0 mi Calm Calm - N/A   Overcast
9:30 AM 57.2 °F 55.4 °F 94% 29.95 in 10.0 mi SSE 3.5 mph - N/A   Mostly Cloudy
9:46 AM 59.0 °F 57.2 °F 94% 29.95 in 10.0 mi Calm Calm - N/A   Scattered Clouds
9:56 AM 61.0 °F 57.9 °F 90% 29.94 in 10.0 mi Variable 4.6 mph - N/A   Clear
10:56 AM 66.0 °F 59.0 °F 78% 29.93 in 10.0 mi Variable 3.5 mph - N/A   Clear
11:56 AM 71.1 °F 60.1 °F 68% 29.91 in 10.0 mi Variable 5.8 mph - N/A   Scattered Clouds
12:05 PM 71.6 °F 60.8 °F 69% 29.90 in 10.0 mi Variable 5.8 mph - N/A   Mostly Cloudy
12:56 PM 71.1 °F 60.1 °F 68% 29.87 in 10.0 mi Variable 3.5 mph - N/A   Mostly Cloudy
1:56 PM 72.0 °F 57.9 °F 61% 29.85 in 10.0 mi South 3.5 mph - N/A   Scattered Clouds
2:56 PM 73.9 °F 57.9 °F 57% 29.83 in 10.0 mi Variable 6.9 mph - N/A   Partly Cloudy
3:56 PM 72.0 °F 59.0 °F 64% 29.85 in 10.0 mi Calm Calm - N/A   Clear
4:56 PM 68.0 °F 60.1 °F 76% 29.85 in 10.0 mi Calm Calm - N/A   Clear
5:56 PM 63.0 °F 60.1 °F 90% 29.85 in 10.0 mi Calm Calm - N/A   Clear
6:56 PM 61.0 °F 59.0 °F 93% 29.87 in 10.0 mi Calm Calm - N/A   Clear
7:56 PM 60.1 °F 57.9 °F 93% 29.88 in 8.0 mi Calm Calm - N/A   Clear
8:56 PM 61.0 °F 60.1 °F 97% 29.88 in 8.0 mi Variable 3.5 mph - 0.01 in   Clear
9:56 PM 61.0 °F 60.1 °F 97% 29.89 in 7.0 mi SSE 3.5 mph - N/A   Scattered Clouds
10:03 PM 60.8 °F 60.8 °F 100% 29.89 in 8.0 mi SSE 3.5 mph - N/A   Mostly Cloudy
10:11 PM 60.8 °F 59.0 °F 94% 29.89 in 8.0 mi SSE 3.5 mph - N/A   Partly Cloudy
10:56 PM 61.0 °F 59.0 °F 93% 29.89 in 10.0 mi South 3.5 mph - N/A   Scattered Clouds
11:56 PM 61.0 °F 59.0 °F 93% 29.89 in 10.0 mi Calm Calm - N/A   Overcast